Location: Batang Balui
(2.7000°N, 113.7833°E)
Time: 00:58:19
(UTC+00:00)

FO-29 - Pass Details

Date: 04 April 2023
Orbit: 799 x 1322 km, 98.5° (Epoch: 29 May)

Event Time Altitude Azimuth Distance (km) Brightness Sun altitude
Rises 20:54:21 0° 14° (NNE) 3,901 12.9 -22.9°
Reaches altitude 10° 20:57:02 10° 15° (NNE) 2,869 12.2 -22.3°
Maximum altitude 21:03:26 80° 102° (ESE) 976 9.5 -20.7°
Drops below altitude 10° 21:09:07 10° 189° (S) 2,546 11.5 -19.3°
Sets 21:11:22 0° 190° (S) 3,434 12.2 -18.7°
